Location: Couloutre
(47.4081°N, 3.2259°E)
Time: 20:32:54
(UTC+00:00)

ATLAS 2AS CENTAUR R/B - Pass Details

Date: 27 February 2020
Orbit: 929 x 1283 km, 63.7° (Epoch: 27 March)

Event Time Altitude Azimuth Distance (km) Brightness Sun altitude
Rises 19:47:17 0° 186° (S) 4,172 5.7 -24.1°
Reaches altitude 10° 19:50:14 10° 179° (S) 3,237 5.0 -24.6°
Enters shadow 19:53:44 26° 160° (SSE) 2,292 4.1 -25.2°
